Location: Newark
(43.9494°N, 6.8108°E)
Time: 05:40:02
(UTC+00:00)

A-11 Canister half - Pass Details

Date: 01 November 2019
Orbit: 1514 x 1686 km, 47.2° (Epoch: 13 November)

Event Time Altitude Azimuth Distance (km) Brightness Sun altitude
Rises 20:45:05 0° 207° (SSW) 4,924 11.6 -46.5°
Enters shadow 20:45:22 - 206° (SSW) 4,843 11.6 -46.5°
Reaches altitude 10° 20:48:32 10° 199° (SSW) 3,941 - -47.0°
Maximum altitude 20:57:37 39° 136° (SE) 2,340 - -48.4°
Drops below altitude 10° 21:06:34 10° 72° (ENE) 3,901 - -49.7°
Sets 21:09:56 0° 65° (ENE) 4,870 - -50.2°
